Location: Banksville Park
(38.5557°N, 75.1182°W)
Time: 12:10:00
(UTC+00:00)

CENTAUR R/B - Pass Details

Date: 19 September 2020
Orbit: 755 x 1433 km, 63.4° (Epoch: 02 October)

Event Time Altitude Azimuth Distance (km) Brightness Sun altitude
Rises 00:47:02 0° 330° (NNW) 4,146 6.5 -20.8°
Reaches altitude 10° 00:49:58 10° 339° (NNW) 3,268 5.8 -21.3°
Maximum altitude 00:57:27 39° 46° (NE) 1,957 3.8 -22.7°
Enters shadow 01:00:05 32° 81° (E) 2,204 3.9 -23.2°
